• In Netherlands
  • List of Countries
  • For 7 days
  • Water Temperature
  • Satellite Maps
  • Weather Map
  • Weather Widgets
  • user-avatar
    Login

    Hourly Weather Madinat 'Isa

    Today, 24 July, Monday

    Time Temperature Precipitation Wind Pressure Humidity
    00:00 +39°C° 0 mm 1 mps 746 mmHg 29%
    01:00 +37°C° 0 mm 1 mps 746 mmHg 30%
    02:00 +37°C° 0 mm 1 mps 746 mmHg 32%
    03:00 +37°C° 0 mm 2 mps 745 mmHg 40%
    04:00 +37°C° 0 mm 2 mps 746 mmHg 40%
    05:00 +37°C° 0 mm 2 mps 746 mmHg 40%
    06:00 +37°C° 0 mm 2 mps 746 mmHg 40%
    07:00 +39°C° 0 mm 2 mps 746 mmHg 36%
    08:00 +40°C° 0 mm 2 mps 747 mmHg 32%
    09:00 +42°C° 0 mm 2 mps 747 mmHg 28%
    10:00 +43°C° 0 mm 2 mps 747 mmHg 25%
    11:00 +45°C° 0 mm 2 mps 747 mmHg 23%
    12:00 +46°C° 0 mm 2 mps 747 mmHg 20%
    13:00 +47°C° 0 mm 2 mps 746 mmHg 19%
    14:00 +47°C° 0 mm 2 mps 746 mmHg 17%
    15:00 +48°C° 0 mm 2 mps 745 mmHg 17%
    16:00 +47°C° 0 mm 2 mps 745 mmHg 18%
    17:00 +46°C° 0 mm 2 mps 745 mmHg 20%
    18:00 +45°C° 0 mm 3 mps 745 mmHg 21%
    19:00 +44°C° 0 mm 3 mps 745 mmHg 22%
    20:00 +42°C° 0 mm 2 mps 746 mmHg 23%
    21:00 +41°C° 0 mm 2 mps 746 mmHg 23%
    22:00 +40°C° 0 mm 2 mps 746 mmHg 27%
    23:00 +40°C° 0 mm 2 mps 746 mmHg 30%

    Tomorrow, 25 July, Tuesday

    Time Temperature Precipitation Wind Pressure Humidity
    00:00 +39°C° 0 mm 2 mps 746 mmHg 33%
    01:00 +37°C° 0 mm 1 mps 746 mmHg 34%
    02:00 +36°C° 0 mm 1 mps 746 mmHg 35%
    03:00 +34°C° 0 mm 0 mps 746 mmHg 36%
    04:00 +36°C° 0 mm 1 mps 746 mmHg 35%
    05:00 +38°C° 0 mm 2 mps 746 mmHg 34%
    06:00 +38°C° 0 mm 3 mps 746 mmHg 34%
    07:00 +40°C° 0 mm 2 mps 746 mmHg 30%
    08:00 +41°C° 0 mm 2 mps 746 mmHg 26%
    09:00 +43°C° 0 mm 2 mps 747 mmHg 23%
    10:00 +45°C° 0 mm 2 mps 746 mmHg 21%
    11:00 +46°C° 0 mm 2 mps 746 mmHg 18%
    12:00 +47°C° 0 mm 2 mps 746 mmHg 16%
    13:00 +47°C° 0 mm 2 mps 746 mmHg 16%
    14:00 +48°C° 0 mm 3 mps 745 mmHg 15%
    15:00 +49°C° 0 mm 4 mps 745 mmHg 15%
    16:00 +48°C° 0 mm 4 mps 745 mmHg 18%
    17:00 +46°C° 0 mm 3 mps 745 mmHg 21%
    18:00 +44°C° 0 mm 3 mps 745 mmHg 24%
    19:00 +42°C° 0 mm 2 mps 745 mmHg 26%
    20:00 +41°C° 0 mm 2 mps 745 mmHg 29%
    21:00 +40°C° 0 mm 1 mps 745 mmHg 31%
    22:00 +39°C° 0 mm 1 mps 745 mmHg 31%
    23:00 +39°C° 0 mm 1 mps 745 mmHg 31%

    Day after tomorrow, 26 July, Wednesday

    Time Temperature Precipitation Wind Pressure Humidity
    00:00 +37°C° 0 mm 1 mps 745 mmHg 32%
    01:00 +37°C° 0 mm 1 mps 745 mmHg 30%
    02:00 +38°C° 0 mm 2 mps 745 mmHg 29%
    03:00 +39°C° 0 mm 2 mps 745 mmHg 28%
    04:00 +39°C° 0 mm 3 mps 745 mmHg 31%
    05:00 +39°C° 0 mm 3 mps 745 mmHg 34%
    06:00 +39°C° 0 mm 3 mps 746 mmHg 36%
    07:00 +42°C° 0 mm 3 mps 746 mmHg 32%
    08:00 +44°C° 0 mm 4 mps 746 mmHg 29%
    09:00 +47°C° 0 mm 4 mps 746 mmHg 25%
    10:00 +47°C° 0 mm 4 mps 746 mmHg 23%
    11:00 +48°C° 0 mm 4 mps 746 mmHg 22%
    12:00 +48°C° 0 mm 4 mps 746 mmHg 20%
    13:00 +48°C° 0 mm 5 mps 746 mmHg 20%
    14:00 +48°C° 0 mm 5 mps 745 mmHg 20%
    15:00 +48°C° 0 mm 6 mps 745 mmHg 19%
    16:00 +47°C° 0 mm 5 mps 745 mmHg 21%
    17:00 +46°C° 0 mm 5 mps 745 mmHg 23%
    18:00 +44°C° 0 mm 4 mps 745 mmHg 25%
    19:00 +43°C° 0 mm 3 mps 745 mmHg 28%
    20:00 +41°C° 0 mm 2 mps 746 mmHg 32%
    21:00 +40°C° 0 mm 1 mps 746 mmHg 35%
    22:00 +39°C° 0 mm 1 mps 746 mmHg 36%
    23:00 +37°C° 0 mm 1 mps 746 mmHg 36%

    27 July, Thursday

    Time Temperature Precipitation Wind Pressure Humidity
    00:00 +35°C° 0 mm 0 mps 746 mmHg 37%
    01:00 +37°C° 0 mm 1 mps 746 mmHg 35%
    02:00 +38°C° 0 mm 2 mps 746 mmHg 33%
    03:00 +39°C° 0 mm 3 mps 745 mmHg 31%
    04:00 +39°C° 0 mm 3 mps 746 mmHg 31%
    05:00 +39°C° 0 mm 3 mps 746 mmHg 31%
    06:00 +39°C° 0 mm 3 mps 747 mmHg 30%
    07:00 +42°C° 0 mm 3 mps 747 mmHg 29%
    08:00 +43°C° 0 mm 3 mps 747 mmHg 28%
    09:00 +45°C° 0 mm 3 mps 748 mmHg 26%
    10:00 +47°C° 0 mm 4 mps 748 mmHg 23%
    11:00 +48°C° 0 mm 4 mps 747 mmHg 19%
    12:00 +49°C° 0 mm 4 mps 747 mmHg 16%
    13:00 +49°C° 0 mm 4 mps 747 mmHg 17%
    14:00 +49°C° 0 mm 5 mps 747 mmHg 18%
    15:00 +48°C° 0 mm 5 mps 746 mmHg 19%
    16:00 +47°C° 0 mm 5 mps 746 mmHg 23%
    17:00 +45°C° 0 mm 5 mps 746 mmHg 28%
    18:00 +42°C° 0 mm 4 mps 746 mmHg 33%
    19:00 +40°C° 0 mm 3 mps 747 mmHg 35%
    20:00 +40°C° 0 mm 2 mps 747 mmHg 37%
    21:00 +39°C° 0 mm 2 mps 747 mmHg 39%
    22:00 +37°C° 0 mm 1 mps 747 mmHg 38%
    23:00 +37°C° 0 mm 1 mps 747 mmHg 37%

    28 July, Friday

    Time Temperature Precipitation Wind Pressure Humidity
    00:00 +36°C° 0 mm 1 mps 747 mmHg 37%
    01:00 +37°C° 0 mm 2 mps 747 mmHg 36%
    02:00 +37°C° 0 mm 2 mps 747 mmHg 35%
    03:00 +37°C° 0 mm 2 mps 746 mmHg 34%
    04:00 +37°C° 0 mm 2 mps 747 mmHg 35%
    05:00 +35°C° 0 mm 1 mps 747 mmHg 35%
    06:00 +35°C° 0 mm 1 mps 748 mmHg 36%
    07:00 +37°C° 0 mm 1 mps 748 mmHg 32%
    08:00 +40°C° 0 mm 2 mps 748 mmHg 29%
    09:00 +41°C° 0 mm 2 mps 749 mmHg 25%
    10:00 +42°C° 0 mm 2 mps 748 mmHg 23%
    11:00 +43°C° 0 mm 2 mps 748 mmHg 21%
    12:00 +45°C° 0 mm 2 mps 748 mmHg 19%
    13:00 +46°C° 0 mm 2 mps 747 mmHg 19%
    14:00 +46°C° 0 mm 3 mps 747 mmHg 18%
    15:00 +47°C° 0 mm 3 mps 747 mmHg 17%
    16:00 +45°C° 0 mm 4 mps 747 mmHg 20%
    17:00 +44°C° 0 mm 4 mps 747 mmHg 23%
    18:00 +43°C° 0 mm 4 mps 747 mmHg 26%
    19:00 +42°C° 0 mm 4 mps 747 mmHg 29%
    20:00 +40°C° 0 mm 3 mps 747 mmHg 32%
    21:00 +39°C° 0 mm 3 mps 748 mmHg 34%
    22:00 +39°C° 0 mm 3 mps 748 mmHg 35%
    23:00 +39°C° 0 mm 3 mps 747 mmHg 36%

    29 July, Saturday

    Time Temperature Precipitation Wind Pressure Humidity
    00:00 +38°C° 0 mm 3 mps 747 mmHg 36%
    01:00 +38°C° 0 mm 3 mps 747 mmHg 38%
    02:00 +37°C° 0 mm 2 mps 747 mmHg 39%
    03:00 +35°C° 0 mm 1 mps 747 mmHg 41%
    04:00 +37°C° 0 mm 2 mps 747 mmHg 40%
    05:00 +37°C° 0 mm 2 mps 748 mmHg 39%
    06:00 +38°C° 0 mm 3 mps 748 mmHg 38%
    07:00 +39°C° 0 mm 3 mps 748 mmHg 34%
    08:00 +40°C° 0 mm 2 mps 749 mmHg 31%
    09:00 +42°C° 0 mm 2 mps 749 mmHg 28%
    10:00 +44°C° 0 mm 3 mps 748 mmHg 24%
    11:00 +46°C° 0 mm 3 mps 748 mmHg 21%
    12:00 +47°C° 0 mm 3 mps 748 mmHg 18%
    13:00 +47°C° 0 mm 3 mps 747 mmHg 17%
    14:00 +48°C° 0 mm 3 mps 747 mmHg 16%
    15:00 +49°C° 0 mm 4 mps 746 mmHg 16%
    16:00 +47°C° 0 mm 3 mps 746 mmHg 18%
    17:00 +45°C° 0 mm 3 mps 746 mmHg 20%
    18:00 +44°C° 0 mm 3 mps 746 mmHg 23%
    19:00 +42°C° 0 mm 2 mps 747 mmHg 23%
    20:00 +41°C° 0 mm 2 mps 747 mmHg 23%
    21:00 +40°C° 0 mm 1 mps 747 mmHg 23%
    22:00 +40°C° 0 mm 2 mps 747 mmHg 23%
    23:00 +40°C° 0 mm 2 mps 747 mmHg 23%
    Show more